Jonesboro, AR

12:07 AM CDT on May 25, 2017 (GMT -0500)
Jonesboro Municipal

Weather History for KJBR - November, 2011

Change the Weather History Date:

Wednesday, November 9, 2011

  Actual Average Record
Temperature  
Mean Temperature 52 °F 53 °F  
Max Temperature 64 °F 63 °F 81 °F (2005)
Min Temperature 39 °F 42 °F 17 °F (1991)
Degree Days  
Heating Degree Days 13 13  
Month to date heating degree days 75 100  
Since 1 July heating degree days 250 287  
Cooling Degree Days 0 0  
Month to date cooling degree days 2 1  
Year to date cooling degree days 2216 1825  
Growing Degree Days 2 (Base 50)    
Moisture  
Dew Point 43 °F    
Average Humidity 70    
Maximum Humidity 93    
Minimum Humidity 46    
Precipitation  
Precipitation 0.03 in 0.13 in 2.40 in (1960)
Month to date precipitation 2.20 1.12  
Year to date precipitation 42.02 39.55  
Snow  
Snow 0.00 in 0.00 in 0.00 in (2002)
Month to date snowfall 0.0 0.0  
Since 1 July snowfall 0.0 0.0  
Since 1 September snowfall 0.0 0.0  
Snow Depth -    
Sea Level Pressure  
Sea Level Pressure 30.05 in    
Wind  
Wind Speed 11 mph (West)    
Max Wind Speed 28 mph    
Max Gust Speed 33 mph    
Visibility 10 miles    
Events Rain    
T = Trace of Precipitation, MM = Missing Value Source: NWS Daily Summary

Daily Weather History Graph

Daily Weather History Graph

Search for Another Location

Airport or City:

Trip Planner

Search our weather history database for the weather conditions in past years. The results will help you decide how hot, cold, wet, or windy it might be!

Date:

Astronomy

Nov. 09, 2011 Rise Set
Actual Time 6:32 AM CST 4:59 PM CST
Civil Twilight 6:05 AM CST 5:26 PM CST
Nautical Twilight 5:35 AM CST 5:57 PM CST
Astronomical Twilight 5:04 AM CST 6:27 PM CST
Moon 4:12 PM CST (11/9) 5:28 AM CST (11/9)
Length of Visible Light 11h 21m
Length of Day
10h 27m
Waxing Gibbous, 99% of the Moon is Illuminated
Nov 9
Waxing Gibbous
Nov 10
Full
Nov 18
Last Quarter
Nov 25
New
Dec 2
First Quarter

Hourly Weather History & Observations

Time (CST) Temp. Windchill Dew Point Humidity Pressure Visibility Wind Dir Wind Speed Gust Speed Precip Events Conditions
12:00 AM 62.6 °F - 60.8 °F 94% 29.84 in 6.0 mi South 3.5 mph - 0.01 in Rain Rain
12:29 AM 62.6 °F - 60.8 °F 94% 29.84 in 10.0 mi SSW 4.6 mph - 0.04 in   Overcast
12:53 AM 64.0 °F - 61.0 °F 90% 29.83 in 10.0 mi SW 11.5 mph - 0.04 in   Overcast
1:05 AM 64.4 °F - 60.8 °F 88% 29.84 in 10.0 mi WSW 12.7 mph - N/A   Overcast
1:25 AM 64.4 °F - 60.8 °F 88% 29.84 in 10.0 mi WSW 19.6 mph - N/A   Mostly Cloudy
1:40 AM 64.4 °F - 59.0 °F 83% 29.84 in 10.0 mi WSW 17.3 mph - N/A   Overcast
1:53 AM 63.0 °F - 59.0 °F 87% 29.84 in 10.0 mi WSW 13.8 mph 21.9 mph N/A   Mostly Cloudy
2:53 AM 59.0 °F - 48.9 °F 69% 29.86 in 10.0 mi WSW 27.6 mph 33.4 mph N/A   Clear
3:53 AM 54.0 °F - 46.9 °F 77% 29.90 in 10.0 mi WSW 19.6 mph 28.8 mph N/A   Clear
4:53 AM 52.0 °F - 45.0 °F 77% 29.94 in 10.0 mi WSW 15.0 mph - N/A   Partly Cloudy
5:22 AM 51.8 °F - 44.6 °F 76% 29.96 in 10.0 mi West 12.7 mph - N/A   Mostly Cloudy
5:53 AM 51.8 °F - 44.6 °F 76% 29.97 in 10.0 mi West 11.5 mph - N/A   Mostly Cloudy
6:03 AM 51.8 °F - 44.6 °F 76% 29.97 in 10.0 mi West 13.8 mph - N/A   Overcast
6:15 AM 53.6 °F - 44.6 °F 72% 29.98 in 10.0 mi West 12.7 mph - N/A   Overcast
6:53 AM 53.1 °F - 45.0 °F 74% 29.99 in 10.0 mi West 11.5 mph - N/A   Overcast
7:53 AM 52.0 °F - 39.9 °F 63% 30.04 in 10.0 mi West 19.6 mph 27.6 mph N/A   Mostly Cloudy
8:06 AM 51.8 °F - 39.2 °F 62% 30.05 in 10.0 mi West 13.8 mph 26.5 mph N/A   Overcast
8:53 AM 51.1 °F - 41.0 °F 68% 30.07 in 10.0 mi West 12.7 mph 26.5 mph N/A   Overcast
9:53 AM 52.0 °F - 37.9 °F 59% 30.10 in 10.0 mi WNW 19.6 mph 26.5 mph N/A   Mostly Cloudy
10:07 AM 51.8 °F - 37.4 °F 58% 30.11 in 10.0 mi WNW 16.1 mph 26.5 mph N/A   Scattered Clouds
10:53 AM 53.1 °F - 37.0 °F 55% 30.12 in 10.0 mi WNW 10.4 mph 27.6 mph N/A   Clear
11:53 AM 54.0 °F - 37.0 °F 53% 30.13 in 10.0 mi NW 18.4 mph 26.5 mph N/A   Clear
12:53 PM 55.0 °F - 37.0 °F 51% 30.14 in 10.0 mi NW 11.5 mph 28.8 mph N/A   Partly Cloudy
1:53 PM 54.0 °F - 36.0 °F 51% 30.15 in 10.0 mi WNW 16.1 mph 24.2 mph N/A   Partly Cloudy
2:53 PM 55.0 °F - 35.1 °F 47% 30.16 in 10.0 mi NNW 15.0 mph 21.9 mph N/A   Partly Cloudy
3:53 PM 54.0 °F - 34.0 °F 47% 30.17 in 10.0 mi NW 13.8 mph 20.7 mph N/A   Clear
4:53 PM 52.0 °F - 33.1 °F 49% 30.19 in 10.0 mi NNW 6.9 mph - N/A   Clear
5:53 PM 48.0 °F - 34.0 °F 58% 30.22 in 10.0 mi Calm Calm - N/A   Clear
6:53 PM 42.1 °F - 35.1 °F 76% 30.22 in 10.0 mi Calm Calm - N/A   Clear
7:53 PM 43.0 °F - 34.0 °F 71% 30.23 in 10.0 mi Calm Calm - N/A   Clear
8:53 PM 44.1 °F 42.5 °F 34.0 °F 68% 30.24 in 10.0 mi WNW 3.5 mph - N/A   Clear
9:53 PM 39.9 °F 37.8 °F 34.0 °F 79% 30.26 in 10.0 mi West 3.5 mph - N/A   Clear
10:53 PM 39.0 °F 36.8 °F 33.1 °F 79% 30.26 in 10.0 mi WNW 3.5 mph - N/A   Clear
11:53 PM 43.0 °F 38.8 °F 33.1 °F 68% 30.26 in 10.0 mi WNW 6.9 mph - N/A   Clear